When you browse on this site, cookies collect data to enhance your experience and personalize the content and advertising you see.
Visit our Privacy Policy to learn more. By continuing to use the site, you agree to this use of cookies and data.
  • In Belgium
  • List of Countries
  • For 7 days
  • Water Temperature
  • Satellite Maps
  • Weather Map
  • Weather Widgets
  • user-avatar
    Login

    Hourly Weather Hobart

    Today, 21 November, Wednesday

    Time Temperature Precipitation Wind Pressure Humidity
    00:00 +14°C° 0.9 mm 4 mps 736 mmHg 98%
    01:00 +14°C° 0.9 mm 4 mps 735 mmHg 98%
    02:00 +14°C° 4.5 mm 4 mps 734 mmHg 98%
    03:00 +14°C° 4.5 mm 3 mps 734 mmHg 98%
    04:00 +15°C° 0 mm 1 mps 734 mmHg 98%
    05:00 +15°C° 1.8 mm 1 mps 734 mmHg 98%
    06:00 +15°C° 1.8 mm 2 mps 734 mmHg 98%
    07:00 +15°C° 1.8 mm 2 mps 733 mmHg 98%
    08:00 +16°C° 0.3 mm 2 mps 733 mmHg 92%
    09:00 +17°C° 0.3 mm 2 mps 733 mmHg 87%
    10:00 +17°C° 0 mm 3 mps 733 mmHg 83%
    11:00 +18°C° 0.1 mm 4 mps 733 mmHg 77%
    12:00 +18°C° 0.1 mm 4 mps 733 mmHg 70%
    13:00 +19°C° 0.1 mm 5 mps 733 mmHg 63%
    14:00 +19°C° 0 mm 5 mps 733 mmHg 61%
    15:00 +17°C° 0 mm 5 mps 733 mmHg 59%
    16:00 +17°C° 0 mm 5 mps 733 mmHg 58%
    17:00 +16°C° 0 mm 5 mps 734 mmHg 64%
    18:00 +14°C° 0 mm 4 mps 734 mmHg 70%
    19:00 +13°C° 0 mm 4 mps 735 mmHg 76%
    20:00 +12°C° 0.1 mm 4 mps 735 mmHg 80%
    21:00 +11°C° 0.1 mm 4 mps 735 mmHg 84%
    22:00 +10°C° 0.1 mm 3 mps 736 mmHg 89%
    23:00 +10°C° 0.1 mm 3 mps 735 mmHg 90%

    Tomorrow, 22 November, Thursday

    Time Temperature Precipitation Wind Pressure Humidity
    00:00 +9°C° 0.1 mm 3 mps 735 mmHg 92%
    01:00 +9°C° 0.1 mm 3 mps 735 mmHg 94%
    02:00 +8°C° 0 mm 3 mps 735 mmHg 95%
    03:00 +8°C° 0 mm 3 mps 734 mmHg 97%
    04:00 +8°C° 0 mm 3 mps 734 mmHg 98%
    05:00 +8°C° 0 mm 3 mps 734 mmHg 95%
    06:00 +9°C° 0 mm 3 mps 734 mmHg 91%
    07:00 +10°C° 0 mm 3 mps 734 mmHg 88%
    08:00 +10°C° 0.2 mm 3 mps 734 mmHg 88%
    09:00 +10°C° 0.2 mm 4 mps 734 mmHg 88%
    10:00 +11°C° 0.2 mm 4 mps 734 mmHg 88%
    11:00 +10°C° 0.3 mm 5 mps 733 mmHg 89%
    12:00 +10°C° 0.3 mm 5 mps 733 mmHg 91%
    13:00 +10°C° 0.3 mm 5 mps 733 mmHg 92%
    14:00 +10°C° 0.3 mm 5 mps 732 mmHg 93%
    15:00 +10°C° 0.3 mm 6 mps 732 mmHg 94%
    16:00 +10°C° 0.3 mm 6 mps 732 mmHg 95%
    17:00 +10°C° 0.3 mm 6 mps 731 mmHg 96%
    18:00 +10°C° 0.3 mm 6 mps 731 mmHg 96%
    19:00 +10°C° 0.3 mm 6 mps 731 mmHg 97%
    20:00 +10°C° 0.3 mm 6 mps 731 mmHg 97%
    21:00 +11°C° 0.3 mm 6 mps 731 mmHg 97%
    22:00 +11°C° 0.3 mm 6 mps 731 mmHg 97%
    23:00 +11°C° 1.2 mm 7 mps 731 mmHg 97%

    Day after tomorrow, 23 November, Friday

    Time Temperature Precipitation Wind Pressure Humidity
    00:00 +11°C° 1.2 mm 7 mps 731 mmHg 98%
    01:00 +11°C° 1.2 mm 7 mps 731 mmHg 98%
    02:00 +11°C° 1.3 mm 7 mps 731 mmHg 98%
    03:00 +10°C° 1.3 mm 7 mps 731 mmHg 98%
    04:00 +10°C° 1.3 mm 8 mps 732 mmHg 98%
    05:00 +10°C° 0.9 mm 8 mps 732 mmHg 97%
    06:00 +10°C° 0.9 mm 8 mps 733 mmHg 97%
    07:00 +10°C° 0.9 mm 8 mps 733 mmHg 97%
    08:00 +9°C° 1 mm 8 mps 733 mmHg 96%
    09:00 +9°C° 1 mm 8 mps 734 mmHg 96%
    10:00 +9°C° 1 mm 8 mps 734 mmHg 96%
    11:00 +9°C° 0.7 mm 8 mps 734 mmHg 94%
    12:00 +10°C° 0.7 mm 8 mps 735 mmHg 93%
    13:00 +10°C° 0.7 mm 7 mps 735 mmHg 91%
    14:00 +10°C° 0.7 mm 7 mps 735 mmHg 89%
    15:00 +10°C° 0.7 mm 7 mps 736 mmHg 87%
    16:00 +10°C° 0.7 mm 7 mps 736 mmHg 85%
    17:00 +10°C° 0.7 mm 7 mps 736 mmHg 89%
    18:00 +10°C° 0.7 mm 7 mps 737 mmHg 92%
    19:00 +9°C° 0.7 mm 6 mps 738 mmHg 95%
    20:00 +9°C° 0.8 mm 6 mps 738 mmHg 95%
    21:00 +9°C° 0.8 mm 6 mps 739 mmHg 96%
    22:00 +9°C° 0.8 mm 6 mps 740 mmHg 96%
    23:00 +9°C° 0.4 mm 6 mps 740 mmHg 96%

    24 November, Saturday

    Time Temperature Precipitation Wind Pressure Humidity
    00:00 +9°C° 0.4 mm 6 mps 740 mmHg 97%
    01:00 +9°C° 0.4 mm 6 mps 740 mmHg 97%
    02:00 +9°C° 0.6 mm 6 mps 740 mmHg 97%
    03:00 +8°C° 0.6 mm 6 mps 740 mmHg 97%
    04:00 +8°C° 0.6 mm 6 mps 740 mmHg 97%
    05:00 +8°C° 0.5 mm 6 mps 741 mmHg 96%
    06:00 +9°C° 0.5 mm 6 mps 741 mmHg 95%
    07:00 +9°C° 0.5 mm 6 mps 741 mmHg 94%
    08:00 +9°C° 0.2 mm 6 mps 742 mmHg 92%
    09:00 +10°C° 0.2 mm 6 mps 742 mmHg 90%
    10:00 +10°C° 0.2 mm 5 mps 742 mmHg 88%
    11:00 +12°C° 0.1 mm 5 mps 742 mmHg 86%
    12:00 +12°C° 0.1 mm 5 mps 742 mmHg 85%
    13:00 +12°C° 0.1 mm 5 mps 742 mmHg 83%
    14:00 +12°C° 0.3 mm 5 mps 742 mmHg 84%
    15:00 +12°C° 0.3 mm 5 mps 742 mmHg 86%
    16:00 +12°C° 0.3 mm 4 mps 742 mmHg 87%
    17:00 +12°C° 0.1 mm 4 mps 742 mmHg 90%
    18:00 +11°C° 0.1 mm 4 mps 743 mmHg 92%
    19:00 +11°C° 0.1 mm 4 mps 743 mmHg 95%
    20:00 +10°C° 0.2 mm 3 mps 743 mmHg 96%
    21:00 +10°C° 0.2 mm 3 mps 743 mmHg 97%
    22:00 +9°C° 0.2 mm 2 mps 744 mmHg 98%
    23:00 +9°C° 0.2 mm 2 mps 744 mmHg 98%

    25 November, Sunday

    Time Temperature Precipitation Wind Pressure Humidity
    00:00 +9°C° 0.2 mm 2 mps 743 mmHg 98%
    01:00 +10°C° 0.2 mm 2 mps 743 mmHg 98%
    02:00 +10°C° 0.1 mm 2 mps 743 mmHg 98%
    03:00 +10°C° 0.1 mm 2 mps 743 mmHg 98%
    04:00 +10°C° 0.1 mm 2 mps 742 mmHg 98%
    05:00 +12°C° 0.1 mm 2 mps 743 mmHg 97%
    06:00 +12°C° 0.1 mm 2 mps 743 mmHg 95%
    07:00 +13°C° 0.1 mm 2 mps 743 mmHg 94%
    08:00 +14°C° 0.2 mm 2 mps 743 mmHg 90%
    09:00 +15°C° 0.2 mm 2 mps 743 mmHg 86%
    10:00 +16°C° 0.2 mm 3 mps 743 mmHg 81%
    11:00 +16°C° 0.2 mm 3 mps 743 mmHg 81%
    12:00 +16°C° 0.2 mm 3 mps 742 mmHg 81%
    13:00 +16°C° 0.2 mm 3 mps 742 mmHg 81%
    14:00 +16°C° 0.1 mm 3 mps 742 mmHg 77%
    15:00 +17°C° 0.1 mm 3 mps 742 mmHg 73%
    16:00 +17°C° 0.1 mm 3 mps 742 mmHg 69%
    17:00 +16°C° 0 mm 3 mps 742 mmHg 74%
    18:00 +14°C° 0 mm 3 mps 742 mmHg 78%
    19:00 +14°C° 0 mm 2 mps 742 mmHg 83%
    20:00 +12°C° 0 mm 2 mps 743 mmHg 88%
    21:00 +10°C° 0 mm 2 mps 743 mmHg 93%
    22:00 +10°C° 0 mm 1 mps 743 mmHg 97%
    23:00 +9°C° 0 mm 1 mps 743 mmHg 98%

    26 November, Monday

    Time Temperature Precipitation Wind Pressure Humidity
    00:00 +9°C° 0 mm 1 mps 742 mmHg 98%
    01:00 +9°C° 0 mm 1 mps 742 mmHg 98%
    02:00 +9°C° 0 mm 1 mps 742 mmHg 98%
    03:00 +9°C° 0 mm 1 mps 742 mmHg 97%
    04:00 +9°C° 0 mm 1 mps 742 mmHg 97%
    05:00 +10°C° 0 mm 1 mps 742 mmHg 91%
    06:00 +11°C° 0 mm 1 mps 742 mmHg 84%
    07:00 +13°C° 0 mm 1 mps 743 mmHg 78%
    08:00 +15°C° 0 mm 1 mps 743 mmHg 68%
    09:00 +19°C° 0 mm 1 mps 742 mmHg 57%
    10:00 +20°C° 0 mm 2 mps 742 mmHg 47%
    11:00 +20°C° 0 mm 2 mps 742 mmHg 47%
    12:00 +21°C° 0 mm 3 mps 742 mmHg 47%
    13:00 +21°C° 0 mm 3 mps 741 mmHg 47%
    14:00 +20°C° 0 mm 3 mps 741 mmHg 50%
    15:00 +20°C° 0 mm 4 mps 741 mmHg 54%
    16:00 +19°C° 0 mm 4 mps 741 mmHg 57%
    17:00 +18°C° 0 mm 3 mps 741 mmHg 65%
    18:00 +16°C° 0 mm 3 mps 741 mmHg 73%
    19:00 +13°C° 0 mm 3 mps 741 mmHg 80%
    20:00 +13°C° 0 mm 2 mps 741 mmHg 86%
    21:00 +12°C° 0 mm 2 mps 741 mmHg 92%
    22:00 +9°C° 0 mm 2 mps 741 mmHg 98%
    23:00 +9°C° 0 mm 2 mps 741 mmHg 98%
    Show more